Location: Unspecified
(41.5000°N, 0.0000°E)
Time: 05:43:50
(UTC+00:00)

Vanguard 1 - Pass Details

Date: 25 June 2019
Orbit: 653 x 3830 km, 34.3° (Epoch: 17 July)

Event Time Altitude Azimuth Distance (km) Brightness Sun altitude
Exits shadow 02:09:06 18° 232° (SW) 5,846 13.4 -18.8°
Maximum altitude 02:24:45 55° 165° (SSE) 3,032 12.2 -17.2°
Drops below altitude 10° 02:36:16 10° 92° (E) 4,125 13.7 -16.0°
Sets 02:38:56 0° 88° (E) 4,792 14.2 -15.7°
